Location: Northcutt
(34.7304°N, 84.4305°W)
Time: 15:35:09
(UTC+00:00)

A-11 Canister half - Visible Passes

Search period start: 03 October 2022 00:00
Search period end: 13 October 2022 00:00
Orbit: 1524 x 1684 km, 47.3° (Epoch: 03 October)

Date Brightness Start Highest point End Pass type
(mag) Time Alt. Az. Time Alt. Az. Time Alt. Az.
03 Oct 9.2 01:45:54 10° NW 01:55:11 54° NNE 01:56:36 51° NE visible
03 Oct 10.4 03:51:02 10° WNW 03:54:52 28° WNW 03:54:52 28° WNW visible
04 Oct 9.3 01:24:12 10° NW 01:33:25 53° NNE 01:35:58 43° ENE visible
04 Oct 10.1 03:29:20 10° WNW 03:34:15 35° WNW 03:34:15 35° WNW visible
05 Oct 9.3 01:02:31 10° NW 01:11:40 51° NNE 01:15:23 36° ENE visible
05 Oct 9.8 03:07:38 10° WNW 03:13:40 44° WNW 03:13:40 44° WNW visible
06 Oct 9.4 00:40:49 10° NW 00:49:55 50° NNE 00:54:51 29° E visible
06 Oct 9.4 02:45:56 10° WNW 02:53:08 56° WNW 02:53:08 56° WNW visible
07 Oct 9.4 00:19:07 10° NW 00:28:09 48° NNE 00:34:21 22° E visible
07 Oct 9.1 02:24:14 10° WNW 02:32:39 69° W 02:32:39 69° W visible
07 Oct 9.5 23:57:25 10° NW 00:06:23 47° NNE 00:13:55 16° E visible
08 Oct 8.9 02:02:33 10° NW 02:12:03 79° SW 02:12:13 79° SSW visible
08 Oct 11.1 04:09:18 10° W 04:10:31 13° W 04:10:31 13° W visible
08 Oct 9.5 23:35:42 10° NW 23:44:37 46° NNE 23:53:33 11° E visible
09 Oct 8.9 01:40:52 10° NW 01:50:22 83° SW 01:51:51 68° SSE visible
09 Oct 10.8 03:47:24 10° WNW 03:50:10 17° W 03:50:10 17° W visible
10 Oct 8.9 01:19:10 10° NW 01:28:40 86° SW 01:31:34 52° SE visible
10 Oct 10.6 03:25:32 10° WNW 03:29:52 22° WSW 03:29:52 22° WSW visible
11 Oct 8.9 00:57:30 10° NW 01:06:59 89° SW 01:11:22 39° SE visible
11 Oct 10.4 03:03:41 10° WNW 03:09:41 26° WSW 03:09:41 26° WSW visible
12 Oct 8.9 00:35:49 10° NW 00:45:17 87° NE 00:51:16 27° SE visible
12 Oct 10.2 02:41:51 10° WNW 02:49:35 29° SW 02:49:36 29° SW visible
